Time,TemperatureF,DewpointF,PressureIn,WindDirection,WindDirectionDegrees,WindSpeedMPH,WindSpeedGustMPH,Humidity,HourlyPrecipIn,Conditions,Clouds,dailyrainin,SolarRadiationWatts/m^2,SoftwareType,DateUTC
2013-05-14 00:02:00,40.8,34.5,29.95,South,175,9.0,9.0,78,0.00,,,0.01,0,Wunderground v.1.15,2013-05-14 05:02:00,
2013-05-14 00:12:00,40.8,34.1,29.94,South,174,8.0,11.0,77,0.00,,,0.00,0,Wunderground v.1.15,2013-05-14 05:12:00,
2013-05-14 00:22:00,40.9,34.2,29.94,South,179,9.0,9.0,77,0.00,,,0.00,0,Wunderground v.1.15,2013-05-14 05:22:00,
2013-05-14 00:32:00,41.2,33.5,29.94,South,174,11.0,16.0,74,0.00,,,0.00,0,Wunderground v.1.15,2013-05-14 05:32:00,
2013-05-14 00:42:00,41.3,33.6,29.93,South,188,10.0,10.0,74,0.00,,,0.00,0,Wunderground v.1.15,2013-05-14 05:42:00,
2013-05-14 00:52:00,41.5,33.5,29.92,South,175,10.0,10.0,73,0.00,,,0.00,0,Wunderground v.1.15,2013-05-14 05:52:00,
2013-05-14 01:02:00,41.5,33.5,29.92,South,186,10.0,10.0,73,0.00,,,0.00,0,Wunderground v.1.15,2013-05-14 06:02:00,
2013-05-14 01:12:00,41.5,33.1,29.91,SSE,157,11.0,16.0,72,0.00,,,0.00,0,Wunderground v.1.15,2013-05-14 06:12:00,
2013-05-14 01:22:00,41.2,33.5,29.90,South,171,11.0,13.0,74,0.00,,,0.00,0,Wunderground v.1.15,2013-05-14 06:22:00,
2013-05-14 01:32:00,41.1,34.1,29.90,SSE,164,9.0,12.0,76,0.00,,,0.00,0,Wunderground v.1.15,2013-05-14 06:32:00,
2013-05-14 01:42:00,41.3,34.0,29.90,SSW,198,11.0,13.0,75,0.00,,,0.00,0,Wunderground v.1.15,2013-05-14 06:42:00,
2013-05-14 01:52:00,41.3,33.6,29.88,SSE,160,12.0,14.0,74,0.00,,,0.00,0,Wunderground v.1.15,2013-05-14 06:52:00,
2013-05-14 02:02:00,41.2,33.5,29.88,South,178,13.0,13.0,74,0.00,,,0.00,0,Wunderground v.1.15,2013-05-14 07:02:00,
2013-05-14 02:12:00,41.1,33.8,29.87,SSE,157,12.0,12.0,75,0.00,,,0.00,0,Wunderground v.1.15,2013-05-14 07:12:00,
2013-05-14 02:22:00,41.3,33.6,29.86,SSE,157,13.0,13.0,74,0.00,,,0.00,0,Wunderground v.1.15,2013-05-14 07:22:00,
2013-05-14 02:32:00,41.6,33.9,29.86,South,172,13.0,13.0,74,0.00,,,0.00,0,Wunderground v.1.15,2013-05-14 07:32:00,
2013-05-14 02:42:00,41.6,34.3,29.85,SSW,196,13.0,13.0,75,0.00,,,0.00,0,Wunderground v.1.15,2013-05-14 07:42:00,
2013-05-14 02:52:00,41.5,34.8,29.84,South,178,13.0,17.0,77,0.00,,,0.00,0,Wunderground v.1.15,2013-05-14 07:52:00,
2013-05-14 03:02:00,41.6,35.2,29.84,SSE,155,12.0,12.0,78,0.00,,,0.00,0,Wunderground v.1.15,2013-05-14 08:02:00,
2013-05-14 03:12:00,42.2,35.2,29.83,SSE,165,12.0,12.0,76,0.00,,,0.00,0,Wunderground v.1.15,2013-05-14 08:12:00,
2013-05-14 03:22:00,42.3,34.9,29.82,SSE,160,11.0,12.0,75,0.00,,,0.00,0,Wunderground v.1.15,2013-05-14 08:22:00,
2013-05-14 03:32:00,42.5,35.1,29.82,SSE,158,13.0,13.0,75,0.00,,,0.00,0,Wunderground v.1.15,2013-05-14 08:32:00,
2013-05-14 03:42:00,42.5,35.1,29.81,SE,141,12.0,12.0,75,0.00,,,0.00,0,Wunderground v.1.15,2013-05-14 08:42:00,
2013-05-14 03:52:00,42.5,35.5,29.81,SSE,148,11.0,11.0,76,0.00,,,0.00,0,Wunderground v.1.15,2013-05-14 08:52:00,
2013-05-14 04:02:00,42.5,35.5,29.81,SSE,154,12.0,12.0,76,0.00,,,0.00,0,Wunderground v.1.15,2013-05-14 09:02:00,
2013-05-14 04:12:00,42.5,35.8,29.80,SSE,164,11.0,11.0,77,0.00,,,0.00,0,Wunderground v.1.15,2013-05-14 09:12:00,
2013-05-14 04:22:00,42.6,35.6,29.79,SSE,152,11.0,13.0,76,0.00,,,0.00,0,Wunderground v.1.15,2013-05-14 09:22:00,
2013-05-14 04:32:00,42.8,35.4,29.79,SSW,195,13.0,13.0,75,0.00,,,0.00,0,Wunderground v.1.15,2013-05-14 09:32:00,
2013-05-14 04:42:00,42.8,35.4,29.78,SSW,195,11.0,11.0,75,0.00,,,0.00,0,Wunderground v.1.15,2013-05-14 09:42:00,
2013-05-14 04:52:00,42.8,35.4,29.78,SSW,193,10.0,15.0,75,0.00,,,0.00,0,Wunderground v.1.15,2013-05-14 09:52:00,
2013-05-14 05:02:00,43.1,35.4,29.78,South,178,12.0,12.0,74,0.00,,,0.00,0,Wunderground v.1.15,2013-05-14 10:02:00,
2013-05-14 05:12:00,42.8,35.1,29.78,SSW,195,11.0,11.0,74,0.00,,,0.00,0,Wunderground v.1.15,2013-05-14 10:12:00,
2013-05-14 05:22:00,42.8,35.1,29.78,South,184,11.0,11.0,74,0.00,,,0.00,0,Wunderground v.1.15,2013-05-14 10:22:00,
2013-05-14 05:32:00,42.8,35.1,29.78,South,174,10.0,10.0,74,0.00,,,0.00,0,Wunderground v.1.15,2013-05-14 10:32:00,
2013-05-14 05:42:00,42.9,35.2,29.77,SSE,160,12.0,12.0,74,0.00,,,0.00,9,Wunderground v.1.15,2013-05-14 10:42:00,
2013-05-14 05:52:00,43.1,35.4,29.77,SSE,152,11.0,11.0,74,0.00,,,0.00,25,Wunderground v.1.15,2013-05-14 10:52:00,
2013-05-14 06:02:00,43.3,35.6,29.77,SSE,164,9.0,9.0,74,0.00,,,0.00,39,Wunderground v.1.15,2013-05-14 11:02:00,
2013-05-14 06:12:00,43.6,35.9,29.77,SE,145,9.0,11.0,74,0.00,,,0.00,81,Wunderground v.1.15,2013-05-14 11:12:00,
2013-05-14 06:22:00,43.9,36.1,29.76,SSE,157,9.0,10.0,74,0.00,,,0.00,97,Wunderground v.1.15,2013-05-14 11:22:00,
2013-05-14 06:32:00,43.9,36.5,29.76,SSE,162,8.0,8.0,75,0.00,,,0.00,106,Wunderground v.1.15,2013-05-14 11:32:00,
2013-05-14 06:42:00,44.1,36.3,29.75,South,171,7.0,7.0,74,0.00,,,0.00,106,Wunderground v.1.15,2013-05-14 11:42:00,
2013-05-14 06:52:00,44.3,36.9,29.76,SE,127,6.0,6.0,75,0.00,,,0.00,157,Wunderground v.1.15,2013-05-14 11:52:00,
2013-05-14 07:02:00,44.8,37.0,29.76,South,175,6.0,12.0,74,0.00,,,0.00,197,Wunderground v.1.15,2013-05-14 12:02:00,
2013-05-14 07:12:00,45.2,37.4,29.75,SSE,148,8.0,10.0,74,0.00,,,0.00,213,Wunderground v.1.15,2013-05-14 12:12:00,
2013-05-14 07:22:00,45.8,37.6,29.75,SSW,202,7.0,10.0,73,0.00,,,0.00,257,Wunderground v.1.15,2013-05-14 12:22:00,
2013-05-14 07:32:00,46.0,38.2,29.75,South,182,8.0,8.0,74,0.00,,,0.00,283,Wunderground v.1.15,2013-05-14 12:32:00,
2013-05-14 07:42:00,46.5,38.3,29.75,South,171,8.0,14.0,73,0.00,,,0.00,315,Wunderground v.1.15,2013-05-14 12:42:00,
2013-05-14 07:52:00,47.0,38.4,29.74,SSE,161,9.0,10.0,72,0.00,,,0.00,361,Wunderground v.1.15,2013-05-14 12:52:00,
2013-05-14 08:02:00,47.6,39.0,29.74,South,179,9.0,9.0,72,0.00,,,0.00,368,Wunderground v.1.15,2013-05-14 13:02:00,
2013-05-14 08:12:00,47.3,38.7,29.74,South,174,11.0,11.0,72,0.00,,,0.00,248,Wunderground v.1.15,2013-05-14 13:12:00,
2013-05-14 08:22:00,47.7,39.5,29.74,SSW,205,8.0,11.0,73,0.00,,,0.00,366,Wunderground v.1.15,2013-05-14 13:22:00,
2013-05-14 08:32:00,48.6,40.3,29.74,South,172,8.0,8.0,73,0.00,,,0.00,419,Wunderground v.1.15,2013-05-14 13:32:00,
2013-05-14 08:42:00,48.9,39.9,29.73,SSE,154,9.0,9.0,71,0.00,,,0.00,468,Wunderground v.1.15,2013-05-14 13:42:00,
2013-05-14 08:52:00,48.8,40.2,29.72,SSE,162,9.0,9.0,72,0.00,,,0.00,512,Wunderground v.1.15,2013-05-14 13:52:00,
2013-05-14 09:02:00,49.5,40.8,29.72,SSE,147,8.0,8.0,72,0.00,,,0.00,537,Wunderground v.1.15,2013-05-14 14:02:00,
2013-05-14 09:12:00,49.4,40.4,29.71,SSE,155,8.0,8.0,71,0.00,,,0.00,563,Wunderground v.1.15,2013-05-14 14:12:00,
2013-05-14 09:22:00,49.9,40.9,29.71,SSE,167,7.0,7.0,71,0.00,,,0.00,586,Wunderground v.1.15,2013-05-14 14:22:00,
2013-05-14 09:32:00,50.8,41.7,29.71,South,182,6.0,7.0,71,0.00,,,0.00,611,Wunderground v.1.15,2013-05-14 14:32:00,
2013-05-14 09:42:00,51.3,42.2,29.72,SSW,199,5.0,5.0,71,0.00,,,0.00,630,Wunderground v.1.15,2013-05-14 14:42:00,
2013-05-14 09:52:00,52.5,42.6,29.73,SSW,192,3.0,6.0,69,0.00,,,0.00,662,Wunderground v.1.15,2013-05-14 14:52:00,
2013-05-14 10:02:00,53.3,43.4,29.73,South,191,2.0,2.0,69,0.00,,,0.00,690,Wunderground v.1.15,2013-05-14 15:02:00,
2013-05-14 10:12:00,54.4,43.3,29.73,South,191,1.0,2.0,66,0.00,,,0.00,714,Wunderground v.1.15,2013-05-14 15:12:00,
2013-05-14 10:22:00,55.4,43.8,29.73,South,191,1.0,1.0,65,0.00,,,0.00,730,Wunderground v.1.15,2013-05-14 15:22:00,
2013-05-14 10:32:00,56.9,44.8,29.73,South,191,1.0,2.0,64,0.00,,,0.00,785,Wunderground v.1.15,2013-05-14 15:32:00,
2013-05-14 10:42:00,57.0,44.9,29.74,South,169,3.0,3.0,64,0.00,,,0.00,653,Wunderground v.1.15,2013-05-14 15:42:00,
2013-05-14 10:52:00,55.9,43.9,29.73,SE,145,5.0,5.0,64,0.00,,,0.00,838,Wunderground v.1.15,2013-05-14 15:52:00,
2013-05-14 11:02:00,55.7,44.5,29.73,SSE,147,5.0,7.0,66,0.00,,,0.00,746,Wunderground v.1.15,2013-05-14 16:02:00,
2013-05-14 11:12:00,54.8,44.0,29.73,SE,128,6.0,6.0,67,0.00,,,0.00,491,Wunderground v.1.15,2013-05-14 16:12:00,
2013-05-14 11:22:00,54.5,43.4,29.74,SE,133,5.0,6.0,66,0.00,,,0.00,406,Wunderground v.1.15,2013-05-14 16:22:00,
2013-05-14 11:32:00,54.1,43.8,29.74,SE,133,5.0,5.0,68,0.00,,,0.00,640,Wunderground v.1.15,2013-05-14 16:32:00,
2013-05-14 11:42:00,54.4,43.7,29.74,ESE,114,5.0,6.0,67,0.00,,,0.00,873,Wunderground v.1.15,2013-05-14 16:42:00,
2013-05-14 11:52:00,56.3,45.9,29.73,SSE,154,4.0,4.0,68,0.00,,,0.00,922,Wunderground v.1.15,2013-05-14 16:52:00,
2013-05-14 12:02:00,57.5,45.4,29.73,SSE,154,3.0,3.0,64,0.00,,,0.00,589,Wunderground v.1.15,2013-05-14 17:02:00,
2013-05-14 12:12:00,58.1,44.7,29.75,SSE,154,2.0,2.0,61,0.00,,,0.00,757,Wunderground v.1.15,2013-05-14 17:12:00,
2013-05-14 12:22:00,59.0,45.6,29.74,SSE,154,2.0,2.0,61,0.00,,,0.00,445,Wunderground v.1.15,2013-05-14 17:22:00,
2013-05-14 12:32:00,59.0,45.6,29.74,WSW,253,2.0,7.0,61,0.00,,,0.00,306,Wunderground v.1.15,2013-05-14 17:32:00,
2013-05-14 12:42:00,57.8,42.2,29.76,NNW,330,7.0,11.0,56,0.00,,,0.00,348,Wunderground v.1.15,2013-05-14 17:42:00,
2013-05-14 12:52:00,56.9,41.8,29.78,NW,326,7.0,7.0,57,0.00,,,0.00,234,Wunderground v.1.15,2013-05-14 17:52:00,
2013-05-14 13:02:00,56.7,42.1,29.78,NNW,337,6.0,6.0,58,0.00,,,0.00,292,Wunderground v.1.15,2013-05-14 18:02:00,
2013-05-14 13:12:00,57.6,41.1,29.78,NNE,24,5.0,8.0,54,0.00,,,0.00,449,Wunderground v.1.15,2013-05-14 18:12:00,
2013-05-14 13:22:00,58.9,41.3,29.78,North,3,7.0,7.0,52,0.00,,,0.00,429,Wunderground v.1.15,2013-05-14 18:22:00,
2013-05-14 13:32:00,59.3,42.2,29.78,NNE,30,5.0,5.0,53,0.00,,,0.00,748,Wunderground v.1.15,2013-05-14 18:32:00,
2013-05-14 13:42:00,60.1,42.4,29.76,NNE,23,4.0,4.0,52,0.00,,,0.00,612,Wunderground v.1.15,2013-05-14 18:42:00,
2013-05-14 13:52:00,60.7,43.0,29.76,NE,41,3.0,4.0,52,0.00,,,0.00,591,Wunderground v.1.15,2013-05-14 18:52:00,
2013-05-14 14:02:00,61.3,42.5,29.76,NE,40,2.0,2.0,50,0.00,,,0.00,799,Wunderground v.1.15,2013-05-14 19:02:00,
2013-05-14 14:12:00,62.4,44.0,29.76,North,350,3.0,3.0,51,0.00,,,0.00,595,Wunderground v.1.15,2013-05-14 19:12:00,
2013-05-14 14:22:00,63.2,43.2,29.75,North,350,2.0,2.0,48,0.00,,,0.00,415,Wunderground v.1.15,2013-05-14 19:22:00,
2013-05-14 14:32:00,62.7,43.8,29.75,North,350,4.0,4.0,50,0.00,,,0.00,456,Wunderground v.1.15,2013-05-14 19:32:00,
2013-05-14 14:42:00,62.1,45.2,29.75,SE,127,2.0,6.0,54,0.00,,,0.00,322,Wunderground v.1.15,2013-05-14 19:42:00,
2013-05-14 14:52:00,58.7,45.3,29.72,SE,137,7.0,7.0,61,0.00,,,0.00,178,Wunderground v.1.15,2013-05-14 19:52:00,
2013-05-14 15:02:00,57.5,45.0,29.72,SE,130,6.0,6.0,63,0.00,,,0.00,959,Wunderground v.1.15,2013-05-14 20:02:00,
2013-05-14 15:12:00,57.8,44.9,29.73,SE,128,5.0,5.0,62,0.00,,,0.00,883,Wunderground v.1.15,2013-05-14 20:12:00,
2013-05-14 15:22:00,58.9,44.6,29.74,SE,130,4.0,6.0,59,0.00,,,0.00,737,Wunderground v.1.15,2013-05-14 20:22:00,
2013-05-14 15:32:00,59.0,44.7,29.74,ESE,110,5.0,6.0,59,0.00,,,0.00,697,Wunderground v.1.15,2013-05-14 20:32:00,
2013-05-14 15:42:00,58.4,44.1,29.73,East,97,7.0,8.0,59,0.00,,,0.00,839,Wunderground v.1.15,2013-05-14 20:42:00,
2013-05-14 15:52:00,58.0,44.2,29.70,ESE,112,7.0,8.0,60,0.00,,,0.00,829,Wunderground v.1.15,2013-05-14 20:52:00,
2013-05-14 16:02:00,57.0,43.7,29.70,ESE,106,9.0,9.0,61,0.00,,,0.00,669,Wunderground v.1.15,2013-05-14 21:02:00,
2013-05-14 16:12:00,55.7,42.9,29.69,ESE,113,6.0,7.0,62,0.00,,,0.00,148,Wunderground v.1.15,2013-05-14 21:12:00,
2013-05-14 16:22:00,53.8,42.3,29.69,ESE,114,7.0,7.0,65,0.00,,,0.00,127,Wunderground v.1.15,2013-05-14 21:22:00,
2013-05-14 16:32:00,52.8,42.1,29.69,SE,127,4.0,7.0,67,0.00,,,0.00,77,Wunderground v.1.15,2013-05-14 21:32:00,
2013-05-14 16:42:00,51.7,42.2,29.70,ESE,120,6.0,7.0,70,0.00,,,0.00,118,Wunderground v.1.15,2013-05-14 21:42:00,
2013-05-14 16:52:00,51.1,42.0,29.70,ESE,116,6.0,7.0,71,0.00,,,0.00,188,Wunderground v.1.15,2013-05-14 21:52:00,
2013-05-14 17:02:00,51.4,41.9,29.70,East,99,5.0,5.0,70,0.00,,,0.00,187,Wunderground v.1.15,2013-05-14 22:02:00,
2013-05-14 17:12:00,51.1,42.0,29.69,ESE,119,7.0,7.0,71,0.00,,,0.00,121,Wunderground v.1.15,2013-05-14 22:12:00,
2013-05-14 17:22:00,51.1,41.7,29.66,East,99,5.0,5.0,70,0.00,,,0.00,192,Wunderground v.1.15,2013-05-14 22:22:00,
2013-05-14 17:32:00,51.0,41.6,29.66,East,95,6.0,6.0,70,0.00,,,0.00,139,Wunderground v.1.15,2013-05-14 22:32:00,
2013-05-14 17:42:00,50.8,41.4,29.66,ESE,104,5.0,7.0,70,0.00,,,0.00,160,Wunderground v.1.15,2013-05-14 22:42:00,
2013-05-14 17:52:00,50.4,40.6,29.65,ESE,102,6.0,6.0,69,0.00,,,0.00,167,Wunderground v.1.15,2013-05-14 22:52:00,
2013-05-14 18:02:00,50.5,41.1,29.65,ESE,109,5.0,5.0,70,0.00,,,0.00,169,Wunderground v.1.15,2013-05-14 23:02:00,
2013-05-14 18:12:00,50.7,41.3,29.66,SSE,150,5.0,5.0,70,0.00,,,0.00,127,Wunderground v.1.15,2013-05-14 23:12:00,
2013-05-14 18:22:00,50.7,40.9,29.66,SSE,168,6.0,7.0,69,0.00,,,0.00,109,Wunderground v.1.15,2013-05-14 23:22:00,
2013-05-14 18:32:00,50.1,41.1,29.66,SSE,164,6.0,6.0,71,0.00,,,0.00,121,Wunderground v.1.15,2013-05-14 23:32:00,
2013-05-14 18:42:00,49.9,41.2,29.66,South,178,4.0,7.0,72,0.00,,,0.00,109,Wunderground v.1.15,2013-05-14 23:42:00,
2013-05-14 18:52:00,49.6,41.3,29.65,South,171,7.0,7.0,73,0.00,,,0.00,155,Wunderground v.1.15,2013-05-14 23:52:00,
2013-05-14 19:02:00,49.5,41.2,29.65,SSE,167,7.0,7.0,73,0.00,,,0.00,88,Wunderground v.1.15,2013-05-15 00:02:00,
2013-05-14 19:12:00,49.5,41.6,29.65,SSE,155,6.0,6.0,74,0.00,,,0.00,70,Wunderground v.1.15,2013-05-15 00:12:00,
2013-05-14 19:22:00,49.4,41.5,29.64,South,174,5.0,5.0,74,0.00,,,0.00,48,Wunderground v.1.15,2013-05-15 00:22:00,
2013-05-14 19:32:00,49.4,41.5,29.64,SSE,154,4.0,4.0,74,0.00,,,0.00,30,Wunderground v.1.15,2013-05-15 00:32:00,
2013-05-14 19:42:00,49.4,41.8,29.63,SSE,154,2.0,3.0,75,0.00,,,0.00,16,Wunderground v.1.15,2013-05-15 00:42:00,
2013-05-14 19:52:00,49.6,42.0,29.62,SSE,150,4.0,4.0,75,0.00,,,0.00,14,Wunderground v.1.15,2013-05-15 00:52:00,
2013-05-14 20:02:00,49.8,42.2,29.62,SSE,168,3.0,3.0,75,0.00,,,0.00,0,Wunderground v.1.15,2013-05-15 01:02:00,
2013-05-14 20:12:00,49.6,42.3,29.62,SSE,151,4.0,4.0,76,0.00,,,0.00,0,Wunderground v.1.15,2013-05-15 01:12:00,
2013-05-14 20:22:00,49.5,42.6,29.61,SSE,154,4.0,4.0,77,0.00,,,0.00,0,Wunderground v.1.15,2013-05-15 01:22:00,
2013-05-14 20:32:00,49.4,42.8,29.61,SSE,155,3.0,5.0,78,0.00,,,0.00,0,Wunderground v.1.15,2013-05-15 01:32:00,
2013-05-14 20:42:00,49.4,42.8,29.60,South,178,6.0,7.0,78,0.00,,,0.00,0,Wunderground v.1.15,2013-05-15 01:42:00,
2013-05-14 20:52:00,49.1,42.9,29.60,SSE,162,7.0,7.0,79,0.00,,,0.00,0,Wunderground v.1.15,2013-05-15 01:52:00,
2013-05-14 21:02:00,48.9,43.0,29.60,SSE,150,7.0,7.0,80,0.00,,,0.00,0,Wunderground v.1.15,2013-05-15 02:02:00,
2013-05-14 21:12:00,48.3,42.7,29.59,SSE,168,7.0,7.0,81,0.00,,,0.00,0,Wunderground v.1.15,2013-05-15 02:12:00,
2013-05-14 21:22:00,48.2,43.0,29.58,South,188,7.0,11.0,82,0.00,,,0.00,0,Wunderground v.1.15,2013-05-15 02:22:00,
2013-05-14 21:32:00,48.3,43.1,29.58,South,178,8.0,8.0,82,0.00,,,0.00,0,Wunderground v.1.15,2013-05-15 02:32:00,
2013-05-14 21:42:00,48.9,43.6,29.57,South,181,8.0,8.0,82,0.00,,,0.00,0,Wunderground v.1.15,2013-05-15 02:42:00,
2013-05-14 21:52:00,49.8,43.9,29.56,South,171,9.0,9.0,80,0.00,,,0.00,0,Wunderground v.1.15,2013-05-15 02:52:00,
2013-05-14 22:02:00,50.2,43.9,29.56,South,184,10.0,12.0,79,0.00,,,0.00,0,Wunderground v.1.15,2013-05-15 03:02:00,
2013-05-14 22:12:00,50.1,44.2,29.55,SSE,147,9.0,12.0,80,0.00,,,0.00,0,Wunderground v.1.15,2013-05-15 03:12:00,
2013-05-14 22:22:00,51.6,45.0,29.54,South,174,11.0,13.0,78,0.00,,,0.00,0,Wunderground v.1.15,2013-05-15 03:22:00,
2013-05-14 22:32:00,53.6,45.9,29.54,South,181,13.0,13.0,75,0.00,,,0.00,0,Wunderground v.1.15,2013-05-15 03:32:00,
2013-05-14 22:42:00,54.4,46.3,29.52,South,174,13.0,17.0,74,0.00,,,0.00,0,Wunderground v.1.15,2013-05-15 03:42:00,
2013-05-14 22:52:00,55.3,46.4,29.51,South,185,15.0,15.0,72,0.00,,,0.00,0,Wunderground v.1.15,2013-05-15 03:52:00,
2013-05-14 23:02:00,55.9,46.6,29.51,South,175,15.0,18.0,71,0.00,,,0.00,0,Wunderground v.1.15,2013-05-15 04:02:00,
2013-05-14 23:12:00,56.0,47.1,29.49,South,175,15.0,15.0,72,0.00,,,0.00,0,Wunderground v.1.15,2013-05-15 04:12:00,
2013-05-14 23:22:00,55.7,47.2,29.48,SSW,198,16.0,20.0,73,0.00,,,0.00,0,Wunderground v.1.15,2013-05-15 04:22:00,
2013-05-14 23:32:00,55.4,47.2,29.48,South,185,14.0,14.0,74,0.00,,,0.00,0,Wunderground v.1.15,2013-05-15 04:32:00,
2013-05-14 23:42:00,56.2,48.0,29.46,SSW,192,15.0,17.0,74,0.00,,,0.00,0,Wunderground v.1.15,2013-05-15 04:42:00,
2013-05-14 23:52:00,56.7,48.1,29.45,South,188,14.0,14.0,73,0.00,,,0.00,0,Wunderground v.1.15,2013-05-15 04:52:00,